{"data":{"norad_id":45134,"epoch":"2026-09-20T03:01:19.754112Z","epoch_age_seconds":46712,"freshness":"FRESH","line1":"1 45134U 20008D   26263.12592308 -.00000529  00000+0 -15522-2 0  9990","line2":"2 45134  87.8902  17.3798 0001771  97.7408 262.3921 13.10375759321089","mean_motion":13.10375759,"eccentricity":0.0001771,"inclination_deg":87.8902,"raan_deg":17.3798,"arg_perigee_deg":97.7408,"mean_anomaly_deg":262.3921,"bstar":-0.0015522,"rev_number":32108,"period_min":109.89214277735,"perigee_km":1220.3598433711,"apogee_km":1223.0517076822,"semimajor_km":7599.8427755266,"source":"CELESTRAK","updated_at":"2026-09-20T09:00:44.545458Z"}}